Voltar ao catálogo

STARLINK-38073

AtivoComunicaçõesSSO
NORAD 69986·PAYLOAD·🇺🇸 United States

Lançado Jul 11, 2026 de Vandenberg Space Force Base

Loading…

Próximas Passagens (próximas 24 horas)

TLE

AtualizadoSource: CelesTrak SupGP

Época: Sep 14, 2026, 21:31 UTC

1 69986C 26159M   26257.89701389  .00091712  00000+0  16896-2 0  2576
2 69986  97.2847  99.5900 0001866  95.1388 316.4948 15.49143653    11

Acompanhe STARLINK-38073 em tempo real com AllMySat

Download on the App Store